Location: Neuvy Saint Sepulchre
(46.5953°N, 1.8122°E)
Time: 19:18:22
(UTC+01:00)

ISS - Pass Details

Date: 03 December 2021
Orbit: 417 x 422 km, 51.6° (Epoch: 06 December)

Event Time Altitude Azimuth Distance (km) Brightness Sun altitude
Rises 18:43:55 0° 296° (WNW) 2,379 0.9 -16.1°
Reaches altitude 10° 18:46:02 10° 299° (WNW) 1,512 -0.3 -16.5°
Maximum altitude 18:49:25 65° 23° (NNE) 469 -3.8 -17.0°
Enters shadow 18:50:06 49° 79° (E) 552 -3.6 -17.2°
